Theta_e
294 295 295 296 295 294 292 292 291 291 293 293 290 289 291 286 279 283 292 297 294 295 297 299 298 298 297 298 298 299 300 299 299 299 298 298 299 298 298 298 298 298 298 300 301 304 306 307 307 307 307 308 308 309 310 311 312 312 314 316 318 320 319 319 319 318 317 317 319 320 320 321 321 320 320 320 319 319 319 318 318 317 316 314 313 313 312
292 293 294 295 293 292 292 291 291 291 292 291 292 291 290 289 286 293 294 294 292 295 294 295 295 296 295 295 296 297 297 297 297 297 297 297 297 297 297 297 298 298 298 298 299 302 305 305 305 306 306 306 307 307 308 309 310 311 311 312 314 319 319 319 319 319 318 318 320 319 319 319 319 318 318 318 319 318 318 318 317 315 315 314 313 311 309
287 291 293 293 291 290 288 291 292 291 291 293 292 291 292 293 292 293 293 291 289 294 296 295 296 296 295 294 293 293 294 295 295 295 295 295 295 295 296 297 298 298 298 298 298 299 302 304 304 304 304 305 306 306 307 308 309 310 311 311 314 319 318 318 319 318 318 318 318 317 317 318 317 316 316 317 317 316 316 315 315 315 314 312 311 310 308
283 290 290 289 290 289 288 288 289 290 290 288 291 288 292 291 290 292 291 288 287 291 294 293 294 293 293 292 292 292 293 294 294 294 294 294 294 294 295 296 296 297 297 297 297 298 298 300 303 303 303 304 304 305 306 307 308 310 310 311 312 314 317 318 318 317 316 317 317 317 318 317 317 316 316 316 316 316 316 316 316 314 312 310 309 308 307
283 289 292 289 288 286 284 285 288 290 293 292 293 293 294 295 295 290 287 288 291 292 293 290 290 290 290 290 292 292 293 293 293 292 293 293 293 294 294 295 295 295 296 297 297 298 298 298 299 301 302 302 302 304 305 306 307 307 308 309 310 312 314 315 316 316 316 315 315 315 315 315 315 315 316 316 316 317 317 316 314 312 310 309 308 306 305
284 290 291 288 282 278 280 290 294 293 291 291 288 289 291 293 293 290 292 291 291 291 290 289 288 288 289 290 291 293 292 291 291 292 292 293 293 294 295 295 294 295 296 297 298 298 298 299 299 300 301 301 302 303 304 304 305 305 306 307 308 309 311 313 315 315 315 313 312 312 313 315 316 316 315 315 315 316 316 315 313 311 309 308 306 304 303
284 286 286 282 276 278 290 294 295 296 295 294 292 292 293 292 292 292 290 290 290 290 290 290 289 290 290 291 291 291 292 292 292 291 292 292 292 293 294 294 294 294 295 295 297 297 298 299 299 299 299 300 301 301 302 303 303 303 303 304 306 307 309 311 313 314 314 312 312 312 312 313 314 314 314 314 314 314 315 314 312 310 308 306 305 303 302
284 284 282 278 278 287 293 293 294 296 296 294 292 289 292 293 292 291 289 289 290 290 289 290 290 290 290 291 292 292 293 293 292 291 291 292 293 292 293 294 294 294 294 295 295 296 299 299 299 299 298 299 299 299 301 301 301 302 302 302 303 304 306 308 310 312 313 312 312 312 312 313 313 312 313 313 314 315 315 314 312 310 308 305 303 302 301
282 282 283 282 287 287 289 288 289 290 288 289 288 284 287 293 293 292 289 290 290 290 290 290 290 290 289 287 288 292 292 293 293 293 293 294 294 294 294 295 295 296 296 295 296 296 296 297 298 299 299 299 298 298 299 299 300 301 301 301 301 302 303 306 309 310 311 312 312 311 311 312 312 312 312 312 313 313 312 310 308 306 304 303 302 301 301
284 282 280 282 281 278 283 289 292 294 293 294 295 290 286 294 294 293 291 289 289 289 290 290 290 291 287 283 284 290 292 293 293 294 294 295 295 295 295 295 295 296 296 296 296 295 294 295 296 298 299 299 298 297 298 298 299 299 299 300 300 301 302 303 306 308 309 309 310 310 312 310 311 312 311 312 312 312 310 307 305 304 302 301 301 300 299
282 282 280 280 279 280 285 287 290 292 293 294 294 288 284 291 294 293 292 290 290 290 290 290 292 290 283 282 285 290 292 293 294 293 293 294 295 295 295 295 295 295 296 296 296 295 295 295 296 297 298 298 297 297 297 297 297 298 298 298 299 300 301 302 302 304 307 308 308 309 310 311 312 312 312 312 312 311 309 307 305 304 302 301 300 299 299
279 280 280 277 280 280 285 287 289 291 293 293 291 281 281 290 294 294 293 291 291 292 292 290 289 287 282 282 285 291 292 292 293 293 293 293 294 294 294 295 296 296 297 296 295 294 294 295 296 297 297 297 297 296 297 296 295 296 297 298 299 300 300 301 301 301 302 303 305 307 309 310 310 310 311 312 311 309 307 306 304 303 302 301 299 299 299
278 280 278 281 281 286 287 287 290 291 294 293 283 280 284 291 292 293 293 292 292 291 290 289 284 286 288 288 290 290 291 291 291 293 294 294 295 294 295 295 294 294 296 296 295 295 295 295 295 296 296 296 295 296 296 295 295 296 297 299 299 300 300 300 300 300 300 301 301 302 304 307 308 309 309 309 308 307 305 304 302 301 299 298 297 297 297
277 276 278 279 280 285 287 289 290 293 290 283 282 287 292 291 289 291 291 289 289 289 288 287 286 287 289 290 290 290 290 291 291 292 293 294 294 294 295 295 296 296 296 296 296 296 296 296 296 295 296 296 295 295 295 294 294 296 297 297 298 299 299 299 299 298 298 299 300 301 301 302 303 305 308 309 307 306 304 302 300 299 298 297 296 296 296
278 275 275 276 275 283 288 289 290 292 286 285 289 290 290 291 290 289 289 289 288 288 286 287 287 287 288 288 289 289 290 290 290 291 292 292 293 294 294 294 295 295 294 295 296 295 296 296 295 295 296 296 296 296 295 295 296 297 298 299 298 298 298 298 298 298 298 297 298 299 299 299 300 301 302 305 307 306 304 302 300 299 299 298 297 296 296
276 274 275 276 281 284 290 289 285 288 291 293 292 290 288 290 290 289 288 288 289 289 287 287 287 288 288 288 289 290 290 291 291 292 293 293 294 295 296 296 296 296 295 294 294 296 296 296 296 296 296 295 295 295 295 297 297 297 297 297 298 298 297 296 296 296 297 297 296 297 297 297 298 298 299 299 300 302 304 302 300 298 298 297 297 296 295
279 277 280 285 288 289 291 291 292 294 295 295 293 291 289 288 288 290 288 288 289 289 288 288 288 287 288 288 290 289 289 290 290 291 292 293 293 294 294 295 296 296 295 295 295 295 295 296 296 296 296 295 295 295 296 298 297 297 296 296 295 295 295 295 295 295 295 295 295 295 295 295 295 296 296 297 297 297 298 298 298 298 298 297 296 295 294
287 288 288 289 289 290 292 294 295 293 292 293 292 291 289 290 290 290 288 289 289 290 290 288 288 288 288 288 289 289 290 290 291 292 292 293 294 295 295 295 295 295 295 295 294 294 294 296 296 297 297 296 295 295 297 298 297 297 296 295 294 294 295 294 294 294 293 293 294 294 293 293 293 293 294 295 295 295 295 295 296 295 295 296 295 293 293
283 278 287 286 287 289 291 291 293 294 293 292 292 290 290 290 290 290 290 290 289 290 290 289 288 288 289 289 289 290 290 290 291 291 292 293 293 294 294 295 295 295 295 294 294 294 293 294 295 296 296 297 296 297 297 298 297 297 296 295 293 293 292 292 292 293 293 292 292 292 292 292 292 292 292 293 293 293 294 294 293 293 292 292 292 292 292
282 281 285 287 289 290 291 291 290 290 291 292 292 291 290 290 290 290 290 291 291 291 290 290 289 289 290 289 289 290 291 291 292 293 293 293 294 294 295 295 296 295 295 294 294 294 294 294 295 295 295 295 296 297 297 298 296 295 295 294 293 291 291 291 291 292 291 289 290 291 291 291 291 291 291 291 290 289 290 292 292 292 292 291 291 291 291
284 287 287 288 288 288 289 291 292 292 292 292 291 291 291 291 290 290 291 292 291 291 290 291 290 290 290 291 291 291 291 292 291 291 292 293 293 294 294 294 294 294 294 293 293 293 293 294 294 294 294 295 296 296 297 297 296 294 293 293 293 291 291 291 290 291 291 291 291 290 290 289 289 289 289 290 290 289 290 289 290 292 292 291 291 291 290
281 281 284 288 282 281 285 289 291 292 293 293 292 291 291 291 290 290 290 290 291 291 291 291 291 290 291 292 291 291 291 291 290 290 291 292 292 292 293 294 294 294 294 293 292 292 292 293 293 293 293 294 295 296 296 296 296 294 293 293 292 291 291 290 290 290 291 291 291 290 290 289 289 289 287 288 289 290 289 289 289 289 289 290 290 290 289
281 287 289 290 288 287 288 290 292 293 294 292 291 290 291 291 291 290 290 289 289 290 290 292 291 290 290 290 290 289 290 290 290 291 291 290 289 289 290 290 290 290 290 292 291 291 292 293 292 293 293 293 294 294 294 294 294 294 293 292 291 290 290 289 289 289 289 289 289 289 289 289 289 288 289 289 288 288 289 289 289 289 289 289 289 289 290
288 290 290 291 289 287 289 291 292 292 292 292 291 291 291 291 291 291 291 290 289 288 289 290 291 290 289 288 288 287 287 288 288 288 289 289 289 289 289 289 289 288 288 289 289 290 290 291 292 292 293 293 293 293 294 293 293 292 292 292 291 291 291 290 290 289 288 288 288 288 288 288 287 287 287 287 288 289 289 288 289 289 289 289 289 289 289
287 291 292 292 291 291 292 292 292 292 293 292 291 291 291 291 291 291 290 289 289 288 287 287 288 288 288 287 287 287 287 287 289 290 290 290 289 288 288 288 288 288 289 288 288 288 289 290 290 291 291 292 292 293 293 293 292 292 291 291 291 291 292 292 290 289 288 289 289 289 288 287 287 287 286 285 285 286 288 289 289 289 288 289 289 289 289
292 292 293 293 293 292 292 292 292 292 292 292 291 291 293 293 291 290 288 288 287 287 287 286 286 287 287 287 286 286 286 287 288 289 289 289 288 287 287 287 288 288 287 288 288 288 288 289 290 290 290 291 291 292 292 292 291 291 291 290 290 291 291 291 290 289 289 290 289 287 287 287 287 286 285 286 284 285 285 286 288 289 289 289 289 289 289
293 294 292 290 289 289 291 289 289 292 292 292 291 291 290 290 291 289 287 287 287 287 287 286 286 286 286 286 287 285 286 285 286 286 286 286 286 287 286 287 287 288 289 289 289 289 289 289 289 289 290 290 291 292 292 291 290 290 290 291 291 289 288 289 289 289 288 288 289 289 288 288 287 287 287 286 285 285 285 286 286 285 285 286 288 289 288
293 294 293 287 286 288 290 291 292 292 292 291 290 289 289 288 288 287 287 286 286 286 286 286 286 285 286 286 285 286 285 285 286 285 286 286 287 286 287 287 289 289 289 289 288 289 289 289 290 290 289 290 291 292 291 289 289 289 289 289 290 289 291 290 290 289 289 289 289 289 288 288 288 286 286 285 286 285 285 286 287 286 286 285 284 288 289
291 291 290 291 290 289 289 290 290 289 289 289 290 289 288 288 287 287 286 286 285 285 286 287 286 286 286 286 285 285 285 286 285 285 285 286 285 285 284 285 285 286 288 288 289 290 290 290 290 290 289 289 290 291 291 289 287 287 288 289 289 288 288 288 288 288 288 288 288 288 286 287 287 287 287 286 286 287 286 285 285 285 284 283 285 287 288
289 288 288 288 289 289 289 288 288 288 288 289 288 288 287 287 286 285 286 285 285 286 286 286 285 286 286 285 285 285 286 285 286 285 285 284 283 283 283 282 282 283 284 285 286 287 288 289 290 290 290 290 291 291 291 289 288 288 288 289 288 286 287 287 287 288 287 287 286 285 286 287 287 287 286 286 286 285 284 284 284 283 284 283 286 284 284
287 288 288 288 289 288 288 288 288 288 288 287 287 287 286 286 285 285 285 286 286 286 285 285 285 284 285 285 285 285 286 285 285 284 283 283 282 282 282 281 280 280 282 283 285 286 286 286 287 288 290 291 291 291 291 290 289 287 288 287 287 286 287 286 286 287 285 285 286 287 286 285 286 285 284 284 284 283 283 282 283 283 283 283 283 283 284
288 288 288 288 288 287 287 287 287 288 288 288 287 287 286 285 284 284 284 284 284 284 285 285 285 285 284 284 285 285 285 284 283 282 281 281 281 281 280 280 280 282 282 284 285 285 285 286 287 289 289 290 291 291 291 291 290 290 288 287 287 286 286 286 286 285 285 285 285 286 284 286 284 284 284 284 284 283 283 282 283 283 283 284 284 285 283
285 284 283 283 285 285 286 286 288 288 289 288 286 286 286 287 287 286 286 286 285 285 285 284 283 283 284 284 284 283 282 281 280 279 279 279 279 279 279 279 280 282 282 283 285 285 287 286 288 288 287 288 289 291 291 291 290 289 289 289 288 287 286 286 286 286 286 285 284 285 285 283 283 284 284 284 284 283 283 283 282 283 284 283 285 285 286
286 286 286 286 286 285 284 285 286 286 286 286 287 287 287 287 287 286 286 285 285 284 284 284 283 283 282 281 280 278 278 278 278 277 278 278 278 278 278 279 280 282 284 285 285 285 286 286 287 287 288 289 290 290 291 291 290 289 290 291 290 290 288 287 287 286 285 284 283 283 283 283 283 282 283 283 284 284 283 283 282 283 284 284 284 284 286
289 288 289 289 288 287 288 287 287 287 286 286 285 286 287 287 286 286 285 285 284 284 284 284 282 280 278 277 276 274 274 276 275 274 278 277 277 276 276 280 282 283 285 286 285 286 287 287 286 287 289 289 290 289 289 289 287 287 288 290 290 290 289 288 288 287 285 285 284 284 283 283 282 284 283 283 284 283 283 283 284 282 283 284 283 283 283
290 289 288 288 289 288 288 288 288 288 287 286 287 287 286 286 286 285 284 284 284 284 283 281 279 278 277 275 273 272 272 271 270 272 274 274 274 275 276 278 281 282 282 284 285 286 287 287 287 287 287 287 287 287 287 286 286 286 286 287 288 289 289 288 288 287 286 284 284 284 283 283 284 283 283 283 283 284 283 283 284 283 283 282 283 282 282
290 289 288 288 288 289 289 289 288 288 288 287 287 287 287 286 286 285 285 285 285 284 283 282 279 278 277 275 274 271 271 271 271 270 272 272 274 276 277 279 279 281 281 282 284 282 285 286 287 287 286 286 286 287 283 284 285 284 285 286 288 290 290 289 288 287 286 285 283 284 284 284 285 284 283 284 284 283 283 283 283 283 284 283 283 282 283
289 290 288 288 288 288 288 288 289 289 288 287 287 286 287 287 286 286 286 285 285 284 283 282 280 278 277 276 274 274 274 272 271 271 271 274 276 280 280 280 279 279 281 280 280 283 285 286 286 286 286 286 286 286 282 281 284 284 284 285 285 287 288 287 287 289 288 287 285 285 285 284 285 283 284 283 284 284 283 283 283 283 282 282 282 283 283
288 289 288 288 288 288 288 289 289 289 289 288 288 288 288 288 287 286 286 286 286 285 283 281 280 280 280 280 280 279 279 276 275 273 273 274 277 279 278 277 277 278 280 278 279 284 285 285 284 286 285 286 286 286 282 280 282 284 284 285 286 286 287 288 288 289 290 287 285 286 285 284 284 283 283 284 283 283 283 284 283 284 283 283 283 282 282
288 288 288 288 288 288 289 289 288 288 288 289 288 288 288 288 288 287 287 286 286 285 285 284 283 282 282 281 281 281 281 281 280 276 276 277 279 278 279 280 281 282 281 282 282 282 284 285 286 286 286 286 286 285 284 284 286 286 284 285 285 286 287 289 290 290 288 287 287 287 287 288 284 283 283 283 284 283 282 283 284 284 284 283 282 282 283
289 288 288 289 288 287 287 287 287 287 287 288 288 288 288 289 289 287 287 287 287 286 285 285 285 284 284 284 283 283 283 282 282 281 280 279 280 277 278 279 281 281 282 281 282 282 284 285 284 284 284 284 286 288 286 285 284 285 286 286 286 285 286 288 288 288 287 287 288 288 289 289 288 285 283 283 283 282 283 283 284 284 284 284 284 283 282
288 288 288 288 288 288 288 288 288 288 288 288 287 288 288 288 289 288 287 287 287 287 287 287 286 287 286 286 285 284 283 283 283 282 281 281 281 279 279 281 282 282 283 284 284 284 284 284 284 285 284 284 286 287 287 285 284 284 285 285 285 286 287 286 287 287 287 287 286 287 287 287 287 287 285 283 283 283 283 284 283 284 283 284 284 284 284
289 288 287 287 289 289 290 288 288 289 289 290 289 288 287 287 287 287 288 288 288 287 287 287 286 286 286 285 284 284 284 283 284 284 283 282 283 282 283 282 282 283 285 284 283 283 283 285 285 285 285 285 285 287 286 285 285 284 284 285 285 286 287 288 288 288 288 289 289 288 289 288 289 288 288 287 285 284 284 284 285 285 284 284 285 285 284
290 290 289 289 289 289 290 289 288 289 290 290 291 290 290 289 289 289 288 288 287 287 287 288 287 287 287 287 286 283 285 283 283 283 282 282 283 284 285 284 285 285 285 285 285 285 284 285 285 286 286 286 286 286 286 286 285 284 284 285 285 285 286 286 287 287 288 288 288 288 288 287 288 287 286 286 287 286 285 285 285 285 285 284 285 284 284
291 290 290 289 288 287 287 287 289 289 289 289 288 288 288 288 288 289 288 287 288 287 286 287 287 287 287 287 287 287 286 286 286 284 282 283 282 282 285 286 286 285 285 286 286 286 285 286 287 286 286 285 286 286 286 286 285 285 284 284 285 286 286 287 288 288 287 286 286 286 286 287 287 286 286 285 286 286 288 286 286 286 286 285 284 285 284
289 290 289 288 289 288 288 289 289 289 290 288 287 288 288 287 288 287 287 288 288 287 288 288 287 287 287 287 287 287 288 287 287 288 288 286 285 285 286 286 285 285 285 285 285 284 285 285 285 286 286 285 285 286 285 286 285 285 283 283 284 284 284 285 287 289 289 289 288 289 288 287 286 286 286 287 287 286 286 286 285 285 287 287 286 286 286
289 288 289 288 289 289 289 289 288 287 287 287 287 287 286 287 288 288 288 288 288 289 289 289 289 289 288 289 288 287 288 287 286 285 286 287 286 285 286 286 285 285 285 284 284 285 284 285 285 285 285 285 285 286 286 286 286 285 284 284 283 284 284 285 287 289 288 287 287 287 287 285 285 286 286 287 287 287 286 285 285 286 286 287 287 286 286
289 288 288 288 289 289 288 287 287 287 287 286 286 285 285 288 289 289 289 289 288 288 288 288 288 288 288 289 289 289 288 287 287 285 285 286 284 286 285 285 285 284 285 284 285 284 285 284 285 285 285 285 285 286 286 286 285 284 284 285 284 284 285 285 285 285 284 284 285 286 286 285 286 286 287 286 286 286 286 286 286 286 285 286 286 285 284
289 289 289 288 288 288 287 286 286 286 285 287 287 288 287 288 288 289 289 289 289 288 287 287 288 289 289 289 290 288 289 288 288 285 283 285 284 284 285 285 285 285 284 284 285 284 285 285 285 285 285 285 285 285 285 285 285 284 283 283 284 284 285 286 285 283 284 285 284 285 285 285 285 284 285 286 286 285 285 286 286 286 285 285 285 285 285
290 289 288 288 287 287 286 285 285 287 289 288 287 287 286 286 285 285 285 286 287 286 286 287 287 287 287 286 287 287 288 288 289 287 286 286 286 286 284 284 285 285 284 284 285 284 285 285 285 284 284 284 284 284 285 285 285 285 285 284 284 284 285 285 286 285 284 283 284 284 285 284 283 284 284 284 286 287 286 285 285 286 286 285 286 285 285
289 288 287 287 286 287 288 288 288 287 286 286 287 285 285 285 285 286 285 285 285 286 285 286 287 287 287 287 287 287 287 288 287 288 287 286 286 286 286 286 285 285 285 284 284 283 282 283 282 283 283 283 283 284 284 285 284 284 285 284 285 284 285 285 285 284 284 284 284 284 284 284 284 283 283 285 285 285 285 285 285 285 285 285 285 285 285
288 288 287 286 287 288 288 288 287 287 286 285 286 285 285 284 284 283 283 285 283 283 285 286 286 287 286 286 286 286 286 285 285 285 287 286 286 286 286 286 284 284 284 283 283 284 282 283 284 284 284 283 283 283 285 285 284 283 284 284 285 285 286 286 285 285 284 284 284 285 286 285 284 283 284 283 283 283 284 284 285 285 285 286 285 285 285
Wind_Speed
8 8 9 9 10 8 5 7 5 7 6 11 6 1 1 1 2 8 8 9 7 7 8 8 9 9 11 10 10 8 7 7 7 8 10 10 9 9 11 11 9 9 9 9 9 9 9 10 10 10 10 10 10 9 9 9 8 8 7 7 5 3 2 2 4 4 4 4 5 5 2 2 2 1 6 6 6 6 6 6 5 5 5 7 8 8 7
6 4 5 9 14 5 10 8 6 4 8 7 6 5 5 2 3 12 12 11 11 7 9 10 9 8 11 9 7 8 8 8 7 9 10 10 9 9 9 9 8 8 8 8 8 8 9 9 10 10 10 10 9 9 9 9 10 9 7 7 5 2 2 3 4 6 7 4 6 5 4 4 1 5 1 6 6 6 6 6 5 7 8 8 9 9 8
5 6 6 7 9 8 9 7 8 7 3 8 7 4 6 10 11 10 12 14 10 7 8 9 7 7 8 11 11 9 8 8 9 10 9 9 9 8 8 9 8 8 8 9 9 10 9 9 9 8 8 8 9 10 10 10 10 9 8 8 6 2 4 2 4 6 7 6 6 6 6 5 2 2 2 5 4 5 4 6 8 8 10 10 9 8 8
2 4 4 8 10 13 13 9 10 10 7 6 4 3 2 4 9 10 11 9 6 7 9 9 8 10 12 12 9 9 8 9 9 8 9 9 9 8 9 8 9 9 9 10 10 9 9 8 8 8 8 8 9 9 8 9 8 8 9 9 9 8 4 2 6 7 7 6 7 7 7 6 4 2 2 5 6 6 8 9 8 10 11 10 8 8 8
2 2 2 1 3 5 5 5 5 7 3 3 4 7 8 5 10 13 9 6 7 8 7 12 11 11 11 11 9 6 8 8 9 9 8 8 8 8 8 8 8 8 8 8 8 9 8 8 7 8 6 7 8 7 8 7 6 9 10 10 11 10 10 9 5 6 8 7 6 5 5 7 7 3 4 7 8 9 9 9 9 11 10 10 9 7 9
4 5 5 3 3 3 2 1 2 3 2 3 9 6 7 8 6 3 5 10 9 8 8 12 10 10 10 9 8 8 6 6 7 8 7 7 7 6 7 6 7 7 7 6 6 7 8 8 8 7 8 7 6 6 6 8 10 9 10 11 10 10 10 9 8 6 6 9 8 6 5 8 9 6 7 8 8 9 10 10 12 11 10 10 8 8 8
5 4 2 4 2 4 1 1 2 4 10 12 13 10 9 10 11 13 12 9 9 10 9 11 12 12 12 11 10 9 8 7 6 7 6 6 7 7 6 7 8 7 7 7 7 8 7 7 6 7 8 7 5 8 8 9 9 9 10 11 11 10 10 8 9 8 7 8 10 8 6 7 9 8 7 8 7 8 10 10 11 10 9 9 7 7 7
4 4 2 3 3 1 2 1 5 3 3 4 8 11 9 7 6 9 11 10 11 12 13 11 9 12 12 12 10 9 8 7 6 6 6 6 6 7 7 7 7 7 8 7 7 6 5 6 5 6 6 6 7 7 7 9 8 9 9 11 11 10 10 10 9 9 8 7 8 7 8 9 9 10 8 7 11 6 11 10 10 10 9 8 8 8 7
5 1 4 3 4 2 1 2 3 4 3 4 2 5 4 4 4 9 11 11 11 12 11 11 11 9 9 12 9 8 7 6 6 6 6 5 5 4 4 5 6 6 6 7 7 6 6 6 7 6 6 6 5 6 9 8 9 10 11 12 11 10 10 10 9 8 7 7 6 6 5 8 11 8 9 7 10 7 10 11 11 10 9 8 7 7 8
4 6 5 3 1 4 4 2 2 3 4 4 4 2 3 4 4 8 12 11 11 12 11 10 11 7 8 8 5 5 6 5 5 5 5 5 5 6 6 5 5 7 7 7 7 6 6 7 8 7 7 6 6 8 8 8 9 10 11 11 10 10 10 9 8 8 7 7 7 6 7 7 6 8 7 6 6 8 9 9 11 9 10 10 9 9 10
3 3 5 4 5 2 1 2 4 5 6 6 5 3 1 1 3 6 11 12 11 12 11 9 5 1 4 3 3 3 4 5 5 6 7 7 6 8 9 9 9 8 8 6 6 8 8 9 8 7 7 7 7 8 8 8 8 10 10 8 9 9 9 8 9 8 8 8 7 7 7 6 5 7 8 8 6 7 8 9 10 8 8 10 8 8 11
1 3 2 3 0 2 1 3 4 7 7 8 1 3 4 1 2 6 8 10 11 8 5 5 3 4 7 7 5 1 2 4 4 5 6 7 7 8 8 11 10 8 8 9 10 9 9 8 7 7 6 8 8 8 9 8 8 8 8 7 6 7 8 9 9 9 8 9 8 7 6 7 7 7 5 7 8 9 8 8 10 9 9 10 12 10 9
5 6 2 2 1 1 1 3 6 7 6 3 5 5 3 2 5 5 6 7 5 4 5 3 5 5 6 9 6 3 3 5 6 6 4 5 5 7 8 8 7 9 10 9 8 7 6 7 7 6 6 8 9 8 8 8 8 7 6 6 7 8 8 9 10 11 10 9 10 10 8 6 7 7 6 7 8 9 9 9 10 9 11 10 11 10 8
3 2 5 2 1 1 1 2 5 4 2 4 4 2 2 6 7 5 6 9 7 8 8 8 8 9 10 8 6 5 4 4 2 3 3 4 6 6 7 9 7 5 6 8 11 11 9 8 6 5 6 9 8 8 8 9 6 5 6 7 7 9 10 10 10 11 11 10 10 8 9 8 9 8 7 7 7 8 9 10 12 11 10 10 11 9 7
2 3 4 2 2 1 2 7 2 1 1 0 5 8 7 6 7 8 7 8 7 11 11 9 11 10 9 8 7 6 4 4 4 4 5 5 6 8 8 9 8 8 8 9 8 8 8 8 6 6 7 10 9 8 9 7 6 6 6 7 8 9 9 10 10 11 11 11 10 8 8 9 9 9 7 8 8 8 10 10 11 11 10 9 10 9 8
3 2 4 4 0 3 3 2 2 1 1 7 8 9 7 7 7 9 9 7 7 8 11 12 10 10 9 7 6 5 5 4 3 3 4 4 4 4 5 6 6 7 8 8 9 9 8 8 7 7 7 8 8 8 8 5 5 6 7 7 8 9 8 8 9 9 10 10 10 10 10 9 9 10 9 9 9 7 8 9 8 9 7 7 8 9 8
0 2 2 1 1 4 3 3 0 5 6 6 5 9 9 9 7 9 10 11 9 8 12 11 11 9 7 7 5 5 4 3 3 3 3 3 4 4 5 5 4 5 7 6 6 8 8 9 8 8 7 8 8 8 6 5 5 5 5 6 7 7 7 7 8 8 9 10 10 9 9 9 9 9 9 9 9 8 9 8 7 7 7 6 7 7 7
7 9 6 3 4 5 6 8 7 10 9 7 7 10 10 7 9 8 11 11 11 8 9 12 8 8 8 8 6 5 4 3 3 4 5 5 4 5 5 5 5 5 5 5 6 6 7 8 8 8 8 8 9 6 6 6 5 5 5 6 7 7 7 7 7 7 9 9 10 10 10 9 9 8 8 8 8 7 8 7 7 8 6 6 6 7 6
0 4 5 7 7 7 8 9 10 9 7 6 6 8 9 10 9 10 10 11 11 9 8 10 11 9 7 8 7 5 5 5 5 4 4 4 4 4 5 4 4 5 5 6 7 7 7 7 7 7 8 8 7 6 6 5 5 6 6 7 7 7 7 7 7 8 9 7 8 9 9 8 8 8 7 7 8 8 7 7 7 7 6 6 6 5 5
3 5 5 6 7 8 7 6 8 9 8 8 7 7 8 10 9 10 11 10 9 8 9 10 11 10 8 9 7 6 5 4 3 3 3 3 2 3 3 3 4 4 5 5 5 6 6 7 7 8 8 8 7 7 6 5 5 7 7 6 7 7 7 7 7 7 8 9 10 8 9 9 8 8 8 8 8 7 6 5 6 6 5 5 5 4 4
9 10 6 7 11 11 9 9 8 7 7 7 9 8 10 10 11 9 8 7 9 7 8 7 9 10 8 8 7 7 5 3 2 2 2 1 1 1 2 2 3 4 4 4 4 4 6 6 8 9 9 8 8 8 6 5 6 7 7 7 6 7 6 7 7 6 6 7 7 7 8 9 7 6 6 6 7 7 6 4 3 4 6 5 4 4 4
3 3 7 4 7 6 5 7 7 9 8 8 9 8 10 8 9 8 8 5 4 5 6 6 5 6 6 5 4 5 4 3 3 3 2 1 1 2 2 3 3 3 3 3 4 5 6 6 7 8 9 9 9 9 7 6 6 7 7 7 7 6 6 6 5 6 6 6 6 6 7 7 8 8 9 10 7 6 6 8 12 11 6 5 4 3 5
8 6 5 5 9 9 8 9 7 7 7 9 9 8 7 6 7 7 7 8 6 5 3 3 4 4 4 4 3 3 2 2 1 1 0 3 4 5 5 4 4 3 3 4 4 6 6 5 6 8 9 9 9 9 8 7 6 6 7 7 6 5 6 5 5 5 6 6 5 5 5 5 6 6 5 7 9 10 8 8 9 10 11 10 9 6 4
11 9 9 7 7 10 9 9 9 8 7 8 9 8 8 8 8 8 8 8 9 7 6 5 5 5 5 4 6 5 4 5 6 4 3 3 5 5 5 4 4 4 4 4 4 5 4 4 5 7 9 9 9 8 8 7 7 7 7 8 7 5 5 4 5 4 4 4 4 5 5 4 5 5 6 6 6 9 9 9 9 10 10 9 8 8 9
11 9 9 9 11 10 9 9 8 8 7 8 9 10 9 9 8 9 9 7 6 8 6 5 4 4 7 4 5 6 6 4 5 5 6 5 5 5 4 4 4 2 1 1 2 4 4 4 5 6 8 7 7 8 7 6 6 7 7 6 6 5 5 5 5 4 3 3 3 3 4 4 4 4 6 6 6 5 6 7 8 8 8 9 9 9 10
12 11 10 9 9 8 6 8 6 5 5 6 6 5 7 8 8 7 7 6 5 5 6 5 4 2 5 6 5 5 6 5 4 5 4 4 4 5 6 4 2 2 3 3 4 5 4 4 5 6 7 6 7 6 6 6 5 5 5 5 5 5 5 5 6 5 5 4 3 2 3 3 3 3 3 5 6 4 5 6 7 8 8 10 9 9 10
11 11 13 12 9 8 7 8 8 5 4 3 5 6 5 6 7 6 4 4 4 4 5 4 4 3 4 5 5 4 5 3 4 4 2 4 4 4 4 5 5 6 5 5 6 5 5 4 5 6 5 5 5 6 5 5 5 5 5 4 5 6 8 6 5 6 6 5 5 5 5 3 3 3 3 2 4 5 6 6 5 4 3 5 6 8 6
10 9 8 11 11 10 7 5 7 6 4 5 5 6 5 6 7 7 5 4 4 2 2 2 4 4 5 1 4 3 3 5 6 3 3 3 2 3 5 6 7 6 5 5 4 5 4 4 5 5 5 4 5 5 5 5 5 5 4 4 4 4 4 6 6 6 6 6 5 5 5 4 3 4 3 3 5 5 3 3 3 4 5 4 2 5 8
7 6 2 4 7 5 5 5 5 4 4 4 5 5 6 7 5 6 5 4 4 3 2 1 2 1 3 2 2 4 4 5 5 4 3 1 2 3 4 5 6 6 5 4 4 3 3 4 4 4 4 4 4 5 5 5 4 4 4 4 4 4 5 4 5 6 5 5 5 5 4 4 4 5 5 6 5 5 3 3 3 3 4 3 4 5 6
4 3 4 5 7 8 9 7 6 5 5 6 7 5 4 6 6 4 4 4 3 5 3 1 2 1 1 2 4 5 7 6 5 4 3 3 3 3 3 3 5 5 5 4 2 3 4 4 4 4 3 3 4 4 4 4 4 4 4 3 3 3 2 3 4 5 5 5 5 6 6 6 6 6 6 5 5 5 4 3 2 2 3 3 4 3 4
4 5 7 6 7 6 9 7 5 5 5 4 4 5 4 3 4 4 3 1 1 0 1 1 1 2 2 3 4 4 5 5 4 4 3 3 3 4 4 4 4 3 3 2 1 1 4 2 2 2 2 3 4 4 4 4 3 3 3 3 3 3 4 6 6 6 5 5 5 6 6 6 6 6 6 6 5 4 3 2 1 1 2 3 4 4 3
10 9 9 7 7 6 5 4 4 5 5 5 5 5 5 4 4 4 2 3 3 3 4 5 5 4 4 4 5 5 5 5 4 4 3 3 3 3 3 3 3 3 1 1 2 4 3 3 2 1 1 4 4 4 4 4 4 5 4 4 5 5 6 6 6 5 5 4 4 5 3 6 5 5 6 5 5 4 2 3 4 5 5 5 5 5 1
11 8 6 5 6 7 6 6 8 6 6 5 4 4 5 6 8 6 6 7 6 5 7 6 4 4 4 4 5 5 5 4 4 3 3 3 3 3 3 2 1 1 2 2 0 2 4 4 2 1 2 3 4 4 4 5 4 5 4 5 4 4 4 4 6 5 5 6 4 3 4 4 3 5 5 5 4 3 3 2 3 4 5 4 5 4 1
8 7 8 8 10 9 9 6 7 7 5 5 7 8 9 9 9 8 7 7 8 7 6 6 5 5 4 5 5 4 4 4 4 2 1 1 2 3 3 3 2 2 1 1 1 3 3 3 2 1 2 4 4 4 4 4 4 4 3 5 6 5 4 2 3 5 5 4 3 4 4 4 5 3 3 3 3 3 3 1 2 5 5 6 5 4 4
7 5 6 8 8 9 10 10 9 9 9 8 6 7 7 7 8 8 8 8 7 6 5 4 4 4 4 4 4 3 5 5 4 3 1 0 0 1 3 3 4 5 6 5 1 4 4 4 3 3 4 4 4 4 4 4 3 4 4 5 4 4 3 2 1 3 3 2 3 4 4 3 1 2 2 2 3 3 2 1 0 5 5 4 4 3 4
9 8 6 7 7 8 9 9 9 8 8 8 9 9 9 9 8 7 7 6 5 5 4 4 4 5 5 5 4 3 4 4 4 3 2 1 1 1 2 4 4 4 4 3 1 1 2 3 4 5 4 4 3 3 2 3 3 3 3 3 4 4 4 2 1 0 0 1 2 2 2 5 3 2 4 3 2 3 3 2 1 3 6 4 4 3 3
10 10 7 6 6 8 10 9 8 8 7 8 9 9 8 8 7 6 6 6 6 6 6 5 5 6 6 5 5 3 3 4 4 4 4 2 1 0 2 1 2 2 2 2 1 1 2 2 3 3 3 3 3 2 2 3 3 3 3 2 3 4 3 4 0 3 3 3 1 0 1 3 4 1 3 6 4 3 3 2 2 2 5 4 4 3 4
9 10 9 8 7 8 8 7 6 8 7 5 4 6 9 7 6 6 6 6 5 5 6 6 7 5 4 2 2 4 4 4 4 4 4 3 2 1 0 0 1 0 0 1 1 1 3 4 5 2 2 2 2 2 1 1 3 1 2 3 2 2 2 3 2 0 1 1 1 0 1 2 1 0 3 4 6 4 3 3 2 1 3 2 2 4 4
7 6 7 7 8 7 6 5 6 7 8 8 6 8 8 9 6 6 5 6 6 5 5 4 5 6 4 4 3 3 3 5 5 5 4 4 1 2 3 4 4 5 3 1 0 1 2 4 3 3 2 3 3 1 2 2 2 1 1 1 1 1 1 2 2 1 2 2 2 1 1 1 0 1 3 4 3 2 3 4 4 2 1 2 3 3 5
8 8 8 8 7 6 6 5 5 6 6 7 7 7 7 8 7 7 6 5 4 5 6 6 6 6 5 5 4 5 6 5 5 4 2 0 0 2 4 6 7 6 6 6 4 3 3 5 3 3 3 2 1 3 3 2 2 0 0 1 1 1 1 2 2 1 2 2 2 4 4 1 2 2 2 4 4 5 5 4 5 4 3 2 2 4 3
9 8 7 8 8 7 7 7 6 5 5 5 5 5 6 9 8 7 6 6 5 4 5 7 7 7 6 7 8 8 6 4 4 4 3 2 1 2 2 5 5 3 3 4 4 4 3 4 3 3 3 3 3 4 4 3 2 1 1 1 1 2 3 3 3 3 3 3 3 2 3 4 3 2 3 3 3 3 3 3 3 4 4 5 5 3 3
7 7 7 9 7 7 7 7 6 5 5 5 5 5 5 7 9 9 7 5 5 5 5 5 7 7 7 7 6 5 4 4 4 4 5 7 6 4 2 6 5 4 4 4 4 4 3 4 4 5 4 3 4 7 6 4 4 3 2 1 2 2 3 3 3 3 2 1 2 3 3 3 4 5 2 4 3 4 5 5 4 4 4 4 4 5 4
8 8 6 6 6 5 6 4 5 5 4 1 2 4 4 4 4 4 5 6 6 4 5 5 4 4 6 4 4 4 5 5 5 5 4 4 5 5 6 4 4 3 6 4 4 4 4 5 6 6 5 4 4 7 6 4 3 3 3 3 3 3 4 3 3 2 1 3 4 3 3 4 6 6 5 3 5 5 5 5 6 6 6 6 6 6 5
6 6 7 7 7 5 5 5 5 5 7 5 5 5 5 5 5 7 5 4 3 3 2 2 3 3 2 4 4 4 4 4 5 6 6 5 4 7 8 7 6 4 7 5 5 4 5 5 5 6 7 7 7 7 5 5 4 3 3 2 3 3 4 4 1 0 0 1 2 3 4 4 4 5 5 5 5 4 5 5 6 6 6 6 6 6 6
9 8 8 8 7 6 6 6 7 8 7 5 4 4 5 5 5 6 7 5 5 5 4 4 4 4 4 4 5 5 6 7 7 6 4 4 5 6 5 9 7 5 7 7 5 6 5 6 7 8 7 7 7 7 5 5 4 4 3 2 3 4 4 4 2 1 1 1 1 2 3 3 3 4 6 5 5 5 4 5 6 6 6 6 6 6 6
6 7 8 8 6 5 6 6 5 4 5 5 4 1 1 2 5 4 4 5 5 5 6 5 5 6 5 4 4 4 2 3 3 6 8 8 6 5 5 8 7 7 9 9 5 6 7 9 9 9 9 8 7 6 5 5 4 5 3 3 3 3 3 4 3 2 2 2 2 3 3 4 5 5 6 6 6 5 6 5 6 5 5 6 6 7 7
6 5 6 6 6 6 6 5 4 4 3 3 1 1 2 3 4 5 5 4 3 3 3 4 4 4 4 4 5 3 1 2 3 3 2 2 3 3 7 9 8 9 8 7 7 7 7 7 8 10 10 10 8 6 6 5 5 5 4 4 4 3 4 5 4 3 2 1 2 1 2 2 4 5 6 5 5 5 3 2 3 4 5 6 6 6 6
7 6 5 5 6 6 6 4 3 2 3 3 3 4 3 0 2 4 4 4 4 3 1 1 3 3 3 4 4 4 5 5 2 4 3 2 2 3 5 6 7 8 8 7 7 7 9 9 8 7 8 7 6 5 6 5 6 5 4 6 4 4 5 5 5 4 2 2 1 1 3 5 4 5 5 5 4 4 1 2 3 3 3 4 5 5 5
6 5 4 3 4 5 5 4 3 1 0 0 1 1 2 2 4 4 4 3 1 1 2 2 2 3 3 2 3 4 5 5 5 2 2 3 5 6 6 6 8 7 6 5 6 6 7 8 7 6 6 6 6 6 5 5 6 5 4 5 5 5 6 7 6 3 3 2 2 1 1 1 2 3 5 5 2 2 3 4 4 3 3 3 4 5 5
4 6 5 4 5 5 5 5 6 7 6 6 4 3 4 6 5 1 1 0 2 3 4 5 4 4 3 2 3 4 2 3 1 2 3 4 4 4 6 6 6 8 8 7 5 6 4 4 4 4 4 4 5 5 4 5 6 5 4 4 4 6 6 5 4 3 3 3 2 2 2 2 2 3 3 4 2 1 1 3 4 4 3 3 5 6 6
5 6 7 7 7 6 5 7 7 7 5 5 5 5 6 7 5 2 3 4 4 5 5 5 5 4 5 5 5 4 3 2 2 4 4 4 5 6 6 6 6 6 6 6 5 3 1 1 2 2 3 3 3 4 4 5 6 5 5 4 5 6 6 4 4 5 5 4 4 3 3 3 3 3 4 4 4 2 2 3 2 3 5 5 5 6 6
7 6 6 4 5 4 3 3 4 4 4 6 6 5 5 5 4 3 2 3 3 5 5 6 4 3 3 4 4 3 4 2 4 3 4 4 3 4 4 4 2 2 1 2 2 3 4 5 5 6 6 6 6 5 5 5 4 4 5 4 5 6 6 6 5 5 4 5 4 5 5 5 4 3 4 3 4 3 2 2 3 3 5 5 6 6 6
Wind_Direction
94 113 118 110 81 77 88 64 48 39 26 42 67 9 57 98 134 166 169 134 111 106 101 96 89 97 91 72 67 68 74 70 67 64 62 55 47 38 35 34 25 17 17 9 11 13 13 11 10 4 5 5 5 4 2 353 355 0 343 337 344 55 113 91 67 49 55 44 85 59 44 22 8 42 141 136 132 137 143 147 151 133 111 111 103 90 73
55 62 110 105 103 94 58 39 33 17 61 61 59 54 13 66 129 129 123 99 86 80 77 67 64 66 80 73 54 55 56 58 58 64 58 53 39 32 30 26 22 16 17 14 15 21 18 16 11 7 4 6 6 5 359 354 357 354 355 348 319 66 141 112 100 102 108 101 101 100 83 84 62 313 198 133 137 140 146 146 109 92 94 90 94 99 95
24 3 49 70 98 100 84 35 30 24 28 62 45 63 34 58 62 91 110 111 104 79 81 80 74 72 78 66 53 47 41 42 50 56 56 53 41 28 23 18 14 9 23 22 23 25 20 20 16 13 8 3 3 5 1 360 358 351 357 2 344 153 133 114 99 99 102 105 83 82 74 73 75 320 239 126 121 119 108 90 95 96 95 90 85 85 90
12 345 68 100 89 82 78 46 22 7 4 53 8 44 295 137 136 120 107 105 121 115 93 81 63 65 66 69 58 46 39 39 45 53 54 50 41 27 23 16 4 1 14 20 22 19 15 10 19 21 13 10 13 4 358 1 352 353 11 10 19 21 28 77 106 102 108 107 102 102 107 110 84 335 124 105 104 102 100 98 94 93 89 90 89 90 90
157 214 311 288 99 68 35 6 334 334 12 90 84 46 33 77 139 135 152 144 117 122 113 90 67 68 68 62 52 49 49 46 48 47 49 45 39 27 19 14 4 8 2 9 18 18 20 15 4 358 1 20 18 1 5 353 2 22 23 22 21 25 28 9 37 98 108 105 97 88 97 101 83 32 78 92 99 100 98 102 98 93 97 91 88 85 88
168 158 164 347 22 119 201 332 314 274 319 96 74 46 43 38 55 60 68 106 110 98 88 94 95 77 70 70 57 42 42 51 56 50 44 37 27 14 16 10 12 7 1 3 13 24 23 18 16 10 9 9 5 5 6 11 21 21 32 31 28 26 27 21 9 26 72 88 72 62 76 93 98 92 92 90 99 104 103 99 97 96 92 93 92 88 83
152 154 106 65 206 228 89 314 338 46 78 82 83 72 62 76 89 93 90 98 105 104 99 102 102 97 87 76 67 57 47 53 59 63 42 30 24 17 2 11 11 6 2 10 15 17 18 15 17 19 18 8 5 23 17 26 20 24 27 34 32 29 29 22 22 23 36 75 89 81 66 74 79 79 70 83 65 89 97 95 94 93 94 93 85 84 82
74 100 155 169 222 152 160 84 27 345 58 58 74 57 40 62 81 102 105 110 111 112 109 103 102 100 96 81 63 57 53 40 47 56 45 28 23 21 14 13 11 10 7 13 10 3 6 11 17 27 22 359 21 29 27 31 27 30 31 36 31 26 28 22 31 27 23 37 69 81 89 86 78 81 74 78 92 79 90 84 84 85 77 78 80 78 74
136 104 70 61 107 127 14 10 20 13 23 2 54 107 37 48 124 113 119 121 121 117 117 120 121 122 98 73 50 31 38 40 44 51 44 25 12 360 0 7 13 4 14 19 11 11 21 21 20 20 12 10 19 35 41 32 37 35 35 34 26 27 29 25 26 34 32 42 37 55 56 90 97 78 84 65 78 59 82 91 84 77 78 72 67 68 62
109 131 111 117 156 204 213 151 70 32 360 322 299 99 100 52 110 130 129 136 137 134 139 149 155 174 67 58 50 7 16 20 41 32 38 22 17 19 15 3 19 15 14 21 21 23 24 27 24 24 14 13 24 42 42 35 40 41 42 33 22 27 27 21 28 29 35 43 43 37 56 30 70 91 75 55 68 92 87 85 87 88 90 79 65 67 76
72 109 139 173 187 216 106 100 331 341 338 332 317 81 114 18 146 150 138 144 155 155 160 166 197 59 85 112 105 7 351 23 37 53 42 23 25 31 25 13 16 11 6 19 26 27 26 30 14 14 24 25 31 40 37 34 34 46 42 33 30 30 24 25 30 37 35 39 45 44 56 56 48 77 94 95 88 83 90 94 93 94 88 89 85 68 61
97 137 96 177 348 209 165 326 322 320 321 308 54 162 211 7 101 142 142 147 156 159 145 120 63 125 142 153 136 122 20 31 31 44 53 47 37 44 37 30 19 8 358 18 26 26 24 20 8 12 17 36 35 37 33 27 31 34 30 18 26 42 41 38 36 38 36 44 41 47 51 59 58 59 70 91 93 95 92 91 86 84 80 76 74 64 60
93 91 81 61 271 213 278 315 313 315 301 343 160 209 127 125 81 89 110 106 99 112 116 106 99 14 87 113 105 56 32 40 27 22 30 55 57 60 55 61 51 32 19 13 13 6 6 11 13 9 19 42 36 30 34 32 25 16 11 16 28 44 47 46 43 40 36 35 40 36 32 46 62 58 61 81 88 92 94 89 90 84 85 85 81 74 66
126 156 101 179 236 241 12 274 291 281 68 159 211 97 93 114 95 79 103 105 91 92 89 104 101 101 94 98 102 90 59 68 46 47 56 54 51 50 55 50 50 47 41 24 19 10 7 5 6 10 28 49 38 31 32 29 11 358 19 26 33 39 43 43 46 45 40 35 38 39 33 38 54 58 57 71 79 89 96 99 96 92 90 87 86 83 76
74 60 89 61 213 222 52 317 317 53 173 149 111 107 73 84 96 95 78 97 109 109 97 86 99 101 99 97 97 95 80 60 47 42 48 53 59 57 49 46 38 45 39 24 20 17 2 8 3 4 32 49 39 33 37 19 8 16 19 27 40 44 42 42 44 48 44 40 39 34 35 37 54 56 48 63 75 86 92 92 97 99 94 95 95 89 75
141 127 155 192 284 318 319 331 151 292 83 136 136 117 107 98 102 103 102 82 93 97 109 112 103 101 102 91 89 84 68 39 7 30 53 68 76 79 73 73 62 49 49 31 18 5 8 6 12 13 22 41 35 33 23 356 22 36 39 43 49 48 43 43 42 42 49 48 44 39 35 39 49 55 51 54 55 56 75 87 89 88 90 93 91 89 85
74 163 145 22 334 293 280 233 80 87 81 99 109 107 119 124 111 117 108 113 106 102 110 107 110 105 98 101 94 88 67 46 18 32 38 46 56 58 60 51 46 56 55 41 29 13 7 6 11 18 21 30 21 24 360 10 20 36 52 54 54 52 47 44 50 49 49 49 49 46 40 43 50 49 54 55 62 51 57 59 68 84 83 78 80 83 79
93 61 55 53 18 8 41 53 73 89 86 78 94 111 113 107 119 126 123 123 119 113 119 116 111 114 123 112 108 98 85 71 51 53 53 49 48 50 52 50 44 47 47 47 41 25 10 4 10 11 18 29 25 352 343 11 21 26 43 55 55 54 48 44 40 54 63 55 51 50 51 48 50 47 54 57 64 60 63 66 73 82 87 82 76 72 71
101 61 2 40 33 24 48 72 69 66 65 76 93 101 103 114 115 112 113 121 125 126 127 120 124 125 128 127 130 131 119 104 96 87 78 65 58 61 60 42 48 42 45 42 32 24 15 358 3 6 16 19 14 2 10 5 28 42 43 49 57 57 56 54 49 48 55 58 60 51 49 54 54 51 49 57 64 60 60 69 72 77 77 81 83 81 80
59 113 93 71 61 49 42 58 86 83 76 77 78 95 107 109 110 115 122 122 119 128 122 129 127 130 134 129 133 128 133 140 153 146 143 137 85 58 53 46 52 60 54 51 31 17 8 353 358 4 10 9 6 11 12 20 35 50 47 55 62 59 57 58 55 55 61 57 63 63 51 50 50 52 52 57 61 53 46 42 78 77 78 77 78 90 100
92 86 79 102 77 54 51 64 68 78 92 97 95 98 101 105 110 116 118 121 131 132 130 130 131 132 143 148 155 154 166 199 247 252 259 259 163 91 75 48 50 67 73 64 50 37 15 5 14 21 20 12 5 15 21 31 47 58 56 52 60 64 64 64 59 53 58 60 67 73 73 63 49 36 36 47 69 73 50 28 33 94 105 82 69 61 75
114 145 157 175 111 106 73 77 99 101 91 92 94 97 99 106 112 116 120 118 114 126 135 140 144 147 163 174 175 166 172 188 212 243 267 305 5 14 29 52 50 41 40 62 52 37 27 22 30 33 28 20 13 6 9 18 40 58 62 64 63 59 63 65 59 60 59 56 57 65 72 79 80 69 51 56 48 71 64 43 57 54 63 92 98 100 89
142 129 121 78 97 99 109 116 113 108 113 113 108 104 115 124 124 126 123 123 122 131 150 158 145 153 165 187 163 148 165 212 225 271 25 73 73 66 69 70 38 35 12 13 40 38 31 29 36 36 32 23 17 12 11 5 24 54 61 67 67 64 63 64 71 81 82 74 63 64 62 71 75 83 70 44 49 58 66 65 64 64 69 74 72 66 84
89 111 113 109 109 119 126 119 122 126 128 121 113 117 118 119 115 116 115 118 122 120 124 131 141 145 137 142 130 131 123 107 100 97 112 103 88 84 74 85 77 51 34 41 48 43 36 44 44 40 37 26 20 16 15 22 24 41 58 72 68 66 76 83 74 71 78 88 91 87 70 65 71 82 78 74 40 17 26 40 43 53 54 50 46 46 49
128 128 115 116 115 113 114 121 122 120 127 124 124 126 126 123 121 120 117 117 118 120 117 120 128 132 125 124 114 108 103 92 89 93 86 71 61 73 77 63 48 63 31 329 43 59 49 51 54 50 44 23 21 18 16 19 37 49 44 58 68 66 71 76 74 67 72 79 87 97 108 96 76 79 96 98 85 54 9 14 40 49 42 34 31 34 35
117 121 123 121 116 110 110 112 111 133 132 136 131 131 129 122 120 116 126 133 127 125 127 132 115 94 110 106 89 88 72 63 63 78 84 77 64 57 54 60 43 38 46 25 50 88 78 48 48 53 48 25 22 19 16 17 36 55 60 63 62 63 66 69 74 65 59 56 69 86 116 107 115 108 113 116 118 106 74 46 33 31 32 30 29 30 28
123 132 135 126 118 129 153 146 150 162 127 104 116 116 108 101 99 98 100 101 125 138 134 131 115 101 68 82 83 77 107 83 68 77 107 100 91 81 70 58 46 54 61 58 65 62 66 51 48 51 40 19 22 26 27 25 40 40 44 53 68 68 64 63 64 63 62 65 68 63 68 85 112 115 121 118 119 109 107 95 80 60 8 349 359 27 30
137 149 155 140 149 159 172 166 147 142 134 125 120 116 119 109 103 101 98 94 82 76 81 93 107 97 97 66 93 80 68 91 119 136 108 91 80 74 71 68 60 58 67 71 82 85 73 64 57 51 27 7 31 29 32 35 41 54 45 46 55 58 56 58 54 51 58 62 63 71 78 71 69 67 70 87 95 109 110 90 76 50 19 5 331 330 36
148 153 128 114 128 126 110 109 102 113 113 111 111 107 113 113 120 122 131 142 146 119 109 75 50 84 135 177 102 100 98 107 115 120 125 99 82 81 78 74 72 69 66 72 73 79 87 74 66 54 21 358 30 38 35 38 37 41 59 54 49 39 38 43 64 70 62 59 58 67 70 71 69 68 69 74 85 96 92 82 54 34 33 5 16 22 29
163 137 114 111 116 122 123 133 150 145 139 139 126 123 119 120 129 153 150 154 145 160 187 103 109 89 39 87 94 128 127 133 142 144 112 67 39 31 54 79 63 45 51 42 27 70 76 76 75 60 22 17 35 39 43 47 51 51 51 49 56 56 43 37 56 62 65 60 55 58 57 58 58 74 71 70 81 91 95 72 52 39 33 28 49 62 54
151 137 129 124 124 129 142 154 151 151 140 130 121 126 124 115 146 165 192 171 50 35 44 88 83 61 65 100 118 117 108 106 103 94 81 60 38 29 25 53 88 84 56 26 343 109 98 74 53 46 336 43 41 37 44 49 44 35 30 26 28 35 62 63 73 79 77 60 47 58 56 59 67 77 84 91 88 84 80 86 79 39 20 33 32 37 22
127 135 136 145 150 149 142 130 133 149 164 149 128 162 164 160 175 162 118 110 153 143 110 98 102 121 128 120 104 97 98 100 93 80 60 38 28 14 20 52 102 116 149 5 98 148 135 117 82 317 349 59 52 47 54 52 49 44 31 20 11 359 5 43 71 77 81 80 78 71 69 82 81 94 99 107 117 126 135 103 64 45 39 27 13 354 313
113 110 101 102 105 120 139 161 160 170 161 154 161 151 142 127 118 119 123 125 114 109 110 119 132 132 132 122 110 102 101 98 87 71 55 39 11 354 346 344 37 45 38 1 73 191 157 145 179 310 353 31 47 56 58 59 58 45 24 36 31 30 36 79 116 93 79 67 58 70 101 102 105 102 114 121 125 125 107 100 88 66 35 24 16 346 70
136 145 154 146 132 134 130 126 122 115 110 122 139 127 109 112 117 117 117 112 111 113 123 142 150 138 123 115 119 126 115 85 70 61 48 36 1 347 336 333 346 3 359 345 70 154 179 174 183 95 55 64 52 58 65 59 62 59 35 29 31 35 42 9 66 88 89 86 90 63 54 61 69 91 127 131 132 122 124 138 109 82 49 32 23 17 30
132 132 134 131 124 127 126 124 123 125 124 110 97 100 115 117 121 128 133 125 132 155 155 135 118 108 110 103 101 108 114 136 167 169 191 258 283 317 325 12 14 22 11 357 116 169 186 179 183 129 84 79 81 78 81 79 69 49 31 39 29 36 47 57 67 104 125 142 121 98 91 84 41 70 100 108 125 128 136 197 188 104 79 54 38 42 47
110 107 105 110 117 115 109 120 126 129 128 126 128 130 133 136 134 133 135 144 148 132 127 123 120 111 98 101 112 133 145 179 181 189 206 238 255 317 33 41 40 37 18 356 328 282 247 196 180 146 120 102 92 74 59 82 76 74 36 49 41 18 35 73 98 44 67 102 132 145 147 131 126 124 127 120 142 161 159 181 238 109 109 103 87 74 71
111 115 114 111 110 115 121 129 134 129 129 130 128 127 135 142 147 153 136 136 150 158 143 135 126 128 155 180 179 174 180 182 192 201 210 224 238 64 50 48 61 82 61 39 278 263 271 266 226 147 103 102 119 130 44 74 63 47 59 49 56 48 19 32 51 189 209 225 206 141 45 51 91 143 160 147 176 199 175 205 225 126 124 126 117 106 99
127 125 127 125 123 117 125 137 138 123 117 106 100 123 143 150 154 151 152 158 164 164 157 153 157 159 149 131 148 163 193 212 221 235 240 221 203 149 320 169 246 145 84 241 229 236 226 219 220 134 104 125 162 174 193 153 95 83 66 48 52 63 33 16 344 320 266 302 108 138 45 70 353 142 205 179 171 179 200 215 239 168 138 147 136 126 131
107 108 110 114 111 114 114 115 118 123 127 134 143 145 156 154 157 148 156 177 186 158 142 141 125 126 147 157 205 237 230 217 215 213 235 247 231 174 219 221 216 197 198 217 205 240 190 188 189 154 176 204 202 181 195 189 163 91 79 71 14 32 14 352 332 291 274 268 308 326 124 142 229 139 177 174 160 189 200 206 216 234 242 170 166 174 152
129 128 129 114 110 117 113 118 126 136 142 141 142 150 157 150 160 167 176 186 198 171 150 137 139 145 170 179 194 225 234 223 208 205 219 31 11 290 304 298 264 248 245 258 260 247 208 208 195 184 221 246 171 202 223 199 195 150 71 41 328 315 321 327 319 326 296 282 258 280 304 240 186 225 186 195 199 186 174 206 230 206 231 250 203 208 194
139 137 133 122 127 122 125 126 135 146 149 153 163 160 151 153 168 165 179 187 202 168 164 169 161 171 184 189 194 215 223 216 205 193 160 129 196 239 254 269 269 256 226 204 217 220 198 202 208 207 249 229 213 205 224 234 221 219 155 249 259 328 340 341 348 322 296 281 252 229 214 265 281 186 204 212 221 245 217 213 230 229 210 220 252 250 232
151 140 136 135 141 141 147 150 147 132 152 167 169 166 165 146 156 178 186 178 188 185 188 199 183 176 191 192 203 211 223 227 217 184 173 183 207 201 210 262 250 248 208 177 195 192 196 208 217 223 239 228 207 211 205 214 212 219 242 277 303 307 301 294 290 295 312 285 263 256 270 245 251 266 181 186 223 220 234 226 213 210 229 235 237 242 239
151 145 144 141 137 147 144 139 139 146 141 120 113 116 128 123 122 133 160 178 181 180 191 192 201 175 152 166 173 179 212 221 224 220 214 227 215 199 190 233 269 245 178 170 179 184 199 211 216 224 229 217 204 210 205 217 228 226 246 274 304 308 295 276 290 306 343 2 355 331 294 269 266 268 266 229 210 213 212 219 226 217 201 215 226 240 246
131 125 134 139 139 144 132 123 122 121 116 135 144 141 137 132 126 128 143 146 155 155 161 176 174 202 200 155 159 191 222 210 221 217 221 269 277 240 222 241 257 215 180 174 183 201 216 219 223 231 228 217 214 196 194 215 222 233 255 268 284 287 279 283 280 193 30 3 317 320 329 322 293 274 260 264 267 243 227 231 230 227 220 207 212 214 231
136 137 132 132 136 129 127 129 131 140 159 166 163 151 154 144 155 157 149 150 154 168 170 165 187 204 204 193 194 208 207 191 192 172 160 234 265 282 225 206 209 193 196 190 192 209 224 223 232 233 228 218 212 191 194 206 216 225 234 254 284 278 275 234 225 240 236 257 290 317 317 303 288 268 262 253 241 251 246 223 224 221 210 211 203 207 216
119 125 120 102 97 116 139 144 145 127 124 114 92 61 267 198 164 163 151 157 167 184 185 187 177 189 190 189 207 215 229 255 217 194 198 176 177 225 183 166 187 192 195 191 205 214 233 235 236 236 233 222 204 192 203 207 214 218 229 238 248 264 249 244 238 240 259 291 308 326 337 331 335 313 268 257 256 247 257 238 223 212 199 199 204 208 211
118 111 109 115 124 121 122 133 128 96 76 82 115 224 253 232 182 180 192 176 183 207 211 191 193 208 198 179 168 173 229 293 312 278 241 236 216 187 167 175 187 190 185 193 212 219 230 235 237 234 226 215 195 196 203 208 207 219 226 247 253 247 241 238 229 244 231 243 264 273 292 321 329 317 302 289 286 287 278 184 200 197 195 199 205 208 208
123 127 131 131 130 128 122 115 102 123 140 161 208 225 251 235 198 193 184 178 209 211 185 239 232 235 211 205 212 197 176 160 209 288 264 203 179 160 160 176 192 200 197 208 219 241 242 237 226 214 209 196 191 205 205 207 209 213 223 247 252 251 241 235 231 224 234 250 226 7 344 341 338 330 319 298 294 290 282 256 243 207 190 188 193 190 189
145 144 137 115 107 106 120 127 109 91 318 255 129 30 1 104 148 146 170 195 178 47 22 352 336 296 273 246 202 207 202 184 165 212 237 166 160 170 191 192 199 198 198 208 225 241 232 231 223 207 191 181 196 206 208 211 212 214 225 229 243 246 240 235 233 208 187 203 227 247 276 312 308 305 305 293 320 310 258 243 245 246 231 192 172 174 175
112 100 104 130 137 142 138 114 117 136 150 141 121 125 112 95 75 6 322 64 143 106 63 46 46 39 25 356 323 294 273 232 209 115 148 159 162 158 169 177 196 198 200 209 223 236 247 224 222 217 200 202 209 207 212 212 222 227 231 238 245 245 239 230 228 212 207 206 218 233 246 260 281 282 267 272 289 292 251 230 233 222 237 235 193 181 182
126 141 160 170 167 168 162 159 161 162 156 146 143 140 110 105 127 147 156 161 126 98 84 58 39 32 45 31 9 360 4 64 133 157 151 163 170 177 183 189 191 194 201 210 224 240 245 232 248 251 242 235 230 227 220 221 228 233 237 246 237 225 219 224 220 222 223 220 217 217 229 243 243 255 265 265 252 250 258 256 233 207 201 205 209 198 202
162 162 160 161 151 146 159 155 149 153 135 139 144 135 130 133 126 118 46 48 116 134 132 98 55 345 359 38 28 10 349 23 109 144 145 148 169 203 209 184 166 165 157 191 208 195 201 210 211 213 209 212 218 226 234 236 235 240 240 234 228 222 216 218 222 229 230 224 224 232 236 238 234 243 251 235 222 241 253 242 232 221 212 210 208 207 206